Time,TemperatureF,DewpointF,PressureIn,WindDirection,WindDirectionDegrees,WindSpeedMPH,WindSpeedGustMPH,Humidity,HourlyPrecipIn,Conditions,Clouds,dailyrainin,SoftwareType,DateUTC
2013-05-24 00:00:00,65.5,63.7,29.26,ESE,112,0.0,3.1,94,0.00,,---,0.00,VWS V14.01,2013-05-24 04:00:00,
2013-05-24 00:02:00,65.5,63.7,29.26,ENE,68,1.3,2.0,94,0.00,,---,0.00,VWS V14.01,2013-05-24 04:02:00,
2013-05-24 00:03:00,65.5,63.7,29.26,ENE,68,1.3,1.3,94,0.00,,---,0.00,VWS V14.01,2013-05-24 04:03:00,
2013-05-24 00:04:00,65.5,63.7,29.26,NE,45,0.0,1.3,94,0.00,,---,0.00,VWS V14.01,2013-05-24 04:04:00,
2013-05-24 00:06:00,65.5,63.7,29.26,NNE,22,2.5,2.5,94,0.00,,---,0.00,VWS V14.01,2013-05-24 04:06:00,
2013-05-24 00:11:00,65.5,64.0,29.26,East,90,0.0,0.0,95,0.00,,---,0.00,VWS V14.01,2013-05-24 04:11:00,
2013-05-24 00:14:00,65.5,64.0,29.26,ENE,68,2.5,2.5,95,0.00,,---,0.00,VWS V14.01,2013-05-24 04:14:00,
2013-05-24 00:19:00,65.3,63.8,29.26,NNE,22,0.0,0.0,95,0.00,,---,0.00,VWS V14.01,2013-05-24 04:19:00,
2013-05-24 00:24:00,65.3,63.8,29.26,ENE,68,1.3,2.2,95,0.00,,---,0.00,VWS V14.01,2013-05-24 04:24:00,
2013-05-24 00:29:00,65.3,63.8,29.26,WNW,292,0.0,0.0,95,0.00,,---,0.00,VWS V14.01,2013-05-24 04:29:00,
2013-05-24 00:35:00,65.1,63.7,29.26,NNE,22,2.9,3.4,95,0.00,,---,0.00,VWS V14.01,2013-05-24 04:35:00,
2013-05-24 00:40:00,65.1,63.7,29.26,NE,45,0.0,0.0,95,0.00,,---,0.00,VWS V14.01,2013-05-24 04:40:00,
2013-05-24 00:46:00,65.1,63.7,29.26,ENE,68,0.9,2.0,95,0.04,,---,0.04,VWS V14.01,2013-05-24 04:46:00,
2013-05-24 00:51:00,64.9,63.5,29.26,ENE,68,1.3,2.2,95,0.04,,---,0.04,VWS V14.01,2013-05-24 04:51:00,
2013-05-24 00:56:00,64.9,63.8,29.26,ENE,68,0.0,0.0,96,0.04,,---,0.04,VWS V14.01,2013-05-24 04:56:00,
2013-05-24 01:01:00,64.9,63.8,29.26,ENE,68,1.3,1.3,96,0.04,,---,0.04,VWS V14.01,2013-05-24 05:01:00,
2013-05-24 01:06:00,64.8,63.6,29.26,ENE,68,0.0,0.0,96,0.04,,---,0.04,VWS V14.01,2013-05-24 05:06:00,
2013-05-24 01:12:00,64.8,63.6,29.26,ENE,68,1.3,2.7,96,0.04,,---,0.04,VWS V14.01,2013-05-24 05:12:00,
2013-05-24 01:17:00,64.8,63.6,29.26,ENE,68,0.0,0.0,96,0.04,,---,0.04,VWS V14.01,2013-05-24 05:17:00,
2013-05-24 01:22:00,64.8,63.6,29.26,NNE,22,0.0,0.0,96,0.04,,---,0.04,VWS V14.01,2013-05-24 05:22:00,
2013-05-24 01:28:00,64.8,63.6,29.23,East,90,1.6,2.5,96,0.04,,---,0.04,VWS V14.01,2013-05-24 05:28:00,
2013-05-24 01:34:00,64.8,63.6,29.23,NNE,22,0.0,3.1,96,0.04,,---,0.04,VWS V14.01,2013-05-24 05:34:00,
2013-05-24 01:39:00,64.8,63.9,29.23,ENE,68,0.0,0.0,97,0.04,,---,0.04,VWS V14.01,2013-05-24 05:39:00,
2013-05-24 01:44:00,64.8,63.9,29.23,ENE,68,0.0,1.3,97,0.04,,---,0.04,VWS V14.01,2013-05-24 05:44:00,
2013-05-24 01:49:00,64.8,63.9,29.23,NE,45,0.0,0.0,97,0.00,,---,0.04,VWS V14.01,2013-05-24 05:49:00,
2013-05-24 01:54:00,64.8,63.9,29.23,ENE,68,0.0,0.0,97,0.00,,---,0.04,VWS V14.01,2013-05-24 05:54:00,
2013-05-24 01:59:00,64.6,63.7,29.23,ENE,68,1.3,2.2,97,0.00,,---,0.04,VWS V14.01,2013-05-24 05:59:00,
2013-05-24 02:04:00,64.8,63.9,29.23,ENE,68,1.6,2.7,97,0.00,,---,0.04,VWS V14.01,2013-05-24 06:04:00,
2013-05-24 02:09:00,64.8,63.9,29.23,ENE,68,0.0,1.1,97,0.00,,---,0.04,VWS V14.01,2013-05-24 06:09:00,
2013-05-24 02:14:00,64.8,63.9,29.23,ENE,68,0.0,0.0,97,0.04,,---,0.08,VWS V14.01,2013-05-24 06:14:00,
2013-05-24 02:19:00,64.8,63.9,29.23,ENE,68,6.5,6.5,97,0.08,,---,0.12,VWS V14.01,2013-05-24 06:19:00,
2013-05-24 02:24:00,64.8,63.9,29.23,ENE,68,1.1,3.1,97,0.08,,---,0.12,VWS V14.01,2013-05-24 06:24:00,
2013-05-24 02:29:00,64.8,63.9,29.23,ENE,68,0.0,2.7,97,0.12,,---,0.16,VWS V14.01,2013-05-24 06:29:00,
2013-05-24 02:34:00,64.8,64.2,29.23,ENE,68,2.2,2.2,98,0.16,,---,0.20,VWS V14.01,2013-05-24 06:34:00,
2013-05-24 02:39:00,64.8,64.2,29.23,NNE,22,0.9,2.0,98,0.21,,---,0.25,VWS V14.01,2013-05-24 06:39:00,
2013-05-24 02:45:00,64.8,64.2,29.23,ENE,68,0.0,0.0,98,0.25,,---,0.29,VWS V14.01,2013-05-24 06:45:00,
2013-05-24 02:51:00,64.8,64.2,29.23,ENE,68,0.0,2.0,98,0.25,,---,0.29,VWS V14.01,2013-05-24 06:51:00,
2013-05-24 02:56:00,64.8,64.2,29.23,NNE,22,0.0,0.0,98,0.25,,---,0.29,VWS V14.01,2013-05-24 06:56:00,
2013-05-24 03:01:00,64.6,64.0,29.23,NNE,22,0.0,0.0,98,0.29,,---,0.33,VWS V14.01,2013-05-24 07:01:00,
2013-05-24 03:06:00,64.6,64.0,29.23,NE,45,1.6,1.6,98,0.29,,---,0.33,VWS V14.01,2013-05-24 07:06:00,
2013-05-24 03:11:00,64.6,64.0,29.23,ENE,68,2.0,2.0,98,0.29,,---,0.33,VWS V14.01,2013-05-24 07:11:00,
2013-05-24 03:16:00,64.6,64.0,29.23,SSE,158,3.6,3.6,98,0.25,,---,0.33,VWS V14.01,2013-05-24 07:16:00,
2013-05-24 03:22:00,64.6,64.0,29.23,NE,45,2.0,2.0,98,0.21,,---,0.33,VWS V14.01,2013-05-24 07:22:00,
2013-05-24 03:27:00,64.4,63.8,29.23,ENE,68,1.3,2.7,98,0.21,,---,0.33,VWS V14.01,2013-05-24 07:27:00,
2013-05-24 03:32:00,64.4,63.8,29.23,NE,45,2.9,2.9,98,0.13,,---,0.33,VWS V14.01,2013-05-24 07:32:00,
2013-05-24 03:37:00,64.4,63.8,29.23,NNE,22,0.0,0.0,98,0.08,,---,0.33,VWS V14.01,2013-05-24 07:37:00,
2013-05-24 03:42:00,64.4,63.8,29.23,SSE,158,0.0,2.2,98,0.08,,---,0.33,VWS V14.01,2013-05-24 07:42:00,
2013-05-24 03:47:00,64.4,63.8,29.23,ENE,68,0.0,0.0,98,0.04,,---,0.33,VWS V14.01,2013-05-24 07:47:00,
2013-05-24 03:52:00,64.4,63.8,29.23,NE,45,1.3,2.9,98,0.08,,---,0.37,VWS V14.01,2013-05-24 07:52:00,
2013-05-24 03:57:00,64.4,63.8,29.20,ENE,68,2.5,2.5,98,0.08,,---,0.37,VWS V14.01,2013-05-24 07:57:00,
2013-05-24 04:02:00,64.4,63.8,29.20,ENE,68,0.0,0.0,98,0.04,,---,0.37,VWS V14.01,2013-05-24 08:02:00,
2013-05-24 04:08:00,64.2,63.7,29.20,NE,45,0.0,1.3,98,0.04,,---,0.37,VWS V14.01,2013-05-24 08:08:00,
2013-05-24 04:14:00,64.2,63.7,29.20,East,90,0.0,2.7,98,0.04,,---,0.37,VWS V14.01,2013-05-24 08:14:00,
2013-05-24 04:19:00,64.2,63.7,29.20,NE,45,0.0,0.0,98,0.04,,---,0.37,VWS V14.01,2013-05-24 08:19:00,
2013-05-24 04:24:00,64.2,63.7,29.20,NE,45,0.0,0.0,98,0.04,,---,0.37,VWS V14.01,2013-05-24 08:24:00,
2013-05-24 04:29:00,64.2,63.7,29.20,NE,45,0.0,0.0,98,0.04,,---,0.37,VWS V14.01,2013-05-24 08:29:00,
2013-05-24 04:34:00,64.2,63.7,29.20,North,0,1.1,1.3,98,0.04,,---,0.37,VWS V14.01,2013-05-24 08:34:00,
2013-05-24 04:39:00,64.2,63.7,29.20,ENE,68,0.0,0.0,98,0.04,,---,0.37,VWS V14.01,2013-05-24 08:39:00,
2013-05-24 04:44:00,64.2,63.7,29.20,NNE,22,0.0,0.0,98,0.04,,---,0.37,VWS V14.01,2013-05-24 08:44:00,
2013-05-24 04:49:00,64.2,63.7,29.20,NNE,22,0.0,0.0,98,0.04,,---,0.37,VWS V14.01,2013-05-24 08:49:00,
2013-05-24 04:55:00,64.2,63.7,29.20,East,90,0.0,0.0,98,0.00,,---,0.37,VWS V14.01,2013-05-24 08:55:00,
2013-05-24 05:00:00,64.2,63.7,29.20,NE,45,1.1,2.2,98,0.00,,---,0.37,VWS V14.01,2013-05-24 09:00:00,
2013-05-24 05:05:00,64.0,63.5,29.20,ENE,68,2.7,3.1,98,0.00,,---,0.37,VWS V14.01,2013-05-24 09:05:00,
2013-05-24 05:11:00,64.0,63.5,29.20,ENE,68,0.0,0.0,98,0.00,,---,0.37,VWS V14.01,2013-05-24 09:11:00,
2013-05-24 05:16:00,64.0,63.5,29.20,ENE,68,0.0,0.0,98,0.04,,---,0.41,VWS V14.01,2013-05-24 09:16:00,
2013-05-24 05:21:00,64.0,63.5,29.20,ENE,68,1.3,2.9,98,0.04,,---,0.41,VWS V14.01,2013-05-24 09:21:00,
2013-05-24 05:26:00,64.0,63.5,29.20,ENE,68,1.1,1.6,98,0.04,,---,0.41,VWS V14.01,2013-05-24 09:26:00,
2013-05-24 05:31:00,64.0,63.5,29.20,ENE,68,0.0,0.0,98,0.04,,---,0.41,VWS V14.01,2013-05-24 09:31:00,
2013-05-24 05:36:00,63.9,63.3,29.20,NNW,338,0.0,0.0,98,0.04,,---,0.41,VWS V14.01,2013-05-24 09:36:00,
2013-05-24 05:42:00,63.9,63.3,29.20,NNW,338,0.0,0.0,98,0.04,,---,0.41,VWS V14.01,2013-05-24 09:42:00,
2013-05-24 05:48:00,63.9,63.3,29.20,NNW,338,0.0,0.0,98,0.04,,---,0.41,VWS V14.01,2013-05-24 09:48:00,
2013-05-24 05:53:00,63.9,63.3,29.20,NNE,22,0.0,0.0,98,0.04,,---,0.41,VWS V14.01,2013-05-24 09:53:00,
2013-05-24 05:59:00,63.9,63.3,29.20,NNE,22,0.0,0.0,98,0.04,,---,0.41,VWS V14.01,2013-05-24 09:59:00,
2013-05-24 06:04:00,63.9,63.3,29.20,NNE,22,0.0,0.0,98,0.04,,---,0.41,VWS V14.01,2013-05-24 10:04:00,
2013-05-24 06:09:00,63.9,63.3,29.20,NNE,22,0.0,0.0,98,0.04,,---,0.41,VWS V14.01,2013-05-24 10:09:00,
2013-05-24 06:14:00,63.9,63.3,29.20,NNE,22,0.0,0.0,98,0.04,,---,0.41,VWS V14.01,2013-05-24 10:14:00,
2013-05-24 06:19:00,63.9,63.3,29.20,ENE,68,2.2,2.2,98,0.00,,---,0.41,VWS V14.01,2013-05-24 10:19:00,
2013-05-24 06:24:00,63.9,63.3,29.17,ENE,68,0.0,0.0,98,0.00,,---,0.41,VWS V14.01,2013-05-24 10:24:00,
2013-05-24 06:29:00,63.9,63.3,29.17,NE,45,0.0,2.2,98,0.00,,---,0.41,VWS V14.01,2013-05-24 10:29:00,
2013-05-24 06:34:00,63.9,63.3,29.17,NE,45,0.0,0.0,98,0.05,,---,0.46,VWS V14.01,2013-05-24 10:34:00,
2013-05-24 06:39:00,64.0,63.5,29.17,NE,45,0.0,0.0,98,0.05,,---,0.46,VWS V14.01,2013-05-24 10:39:00,
2013-05-24 06:44:00,64.0,63.5,29.17,NE,45,0.0,0.0,98,0.05,,---,0.46,VWS V14.01,2013-05-24 10:44:00,
2013-05-24 06:49:00,64.0,63.5,29.17,NE,45,0.0,0.0,98,0.05,,---,0.46,VWS V14.01,2013-05-24 10:49:00,
2013-05-24 06:54:00,64.0,63.5,29.17,NE,45,0.0,0.0,98,0.05,,---,0.46,VWS V14.01,2013-05-24 10:54:00,
2013-05-24 07:00:00,64.0,63.5,29.17,NE,45,0.0,0.0,98,0.05,,---,0.46,VWS V14.01,2013-05-24 11:00:00,
2013-05-24 07:05:00,64.2,63.7,29.17,NE,45,0.0,0.0,98,0.05,,---,0.46,VWS V14.01,2013-05-24 11:05:00,
2013-05-24 07:10:00,64.2,63.7,29.17,NE,45,0.0,0.0,98,0.05,,---,0.46,VWS V14.01,2013-05-24 11:10:00,
2013-05-24 07:15:00,64.4,63.8,29.17,ENE,68,0.0,0.0,98,0.05,,---,0.46,VWS V14.01,2013-05-24 11:15:00,
2013-05-24 07:20:00,64.6,64.0,29.17,ENE,68,0.0,1.3,98,0.05,,---,0.46,VWS V14.01,2013-05-24 11:20:00,
2013-05-24 07:25:00,64.8,64.2,29.17,NNE,22,0.0,0.0,98,0.05,,---,0.46,VWS V14.01,2013-05-24 11:25:00,
2013-05-24 07:30:00,64.8,64.2,29.17,North,0,0.0,0.0,98,0.05,,---,0.46,VWS V14.01,2013-05-24 11:30:00,
2013-05-24 07:35:00,64.8,64.2,29.17,North,0,0.0,0.0,98,0.00,,---,0.46,VWS V14.01,2013-05-24 11:35:00,
2013-05-24 07:40:00,64.9,64.4,29.17,NNE,22,0.0,0.0,98,0.00,,---,0.46,VWS V14.01,2013-05-24 11:40:00,
2013-05-24 07:46:00,65.1,64.5,29.17,NNE,22,0.0,0.0,98,0.00,,---,0.46,VWS V14.01,2013-05-24 11:46:00,
2013-05-24 07:51:00,65.1,64.5,29.17,NNE,22,0.0,0.0,98,0.00,,---,0.46,VWS V14.01,2013-05-24 11:51:00,
2013-05-24 07:56:00,65.1,64.5,29.17,NNE,22,0.0,0.0,98,0.00,,---,0.46,VWS V14.01,2013-05-24 11:56:00,
2013-05-24 08:01:00,65.3,64.7,29.17,NNE,22,0.0,0.0,98,0.00,,---,0.46,VWS V14.01,2013-05-24 12:01:00,
2013-05-24 08:06:00,65.5,64.9,29.17,NNE,22,0.0,0.0,98,0.00,,---,0.46,VWS V14.01,2013-05-24 12:06:00,
2013-05-24 08:11:00,65.5,64.9,29.17,NNE,22,0.0,0.0,98,0.00,,---,0.46,VWS V14.01,2013-05-24 12:11:00,
2013-05-24 08:16:00,65.5,64.9,29.17,NE,45,0.0,0.0,98,0.00,,---,0.46,VWS V14.01,2013-05-24 12:16:00,
2013-05-24 08:21:00,65.7,65.1,29.17,NE,45,0.0,0.0,98,0.00,,---,0.46,VWS V14.01,2013-05-24 12:21:00,
2013-05-24 08:26:00,65.8,65.3,29.17,ENE,68,0.0,0.0,98,0.00,,---,0.46,VWS V14.01,2013-05-24 12:26:00,
2013-05-24 08:31:00,66.2,65.6,29.17,NNE,22,0.0,0.0,98,0.00,,---,0.46,VWS V14.01,2013-05-24 12:31:00,
2013-05-24 08:37:00,66.4,65.8,29.17,NNW,338,0.0,0.0,98,0.00,,---,0.46,VWS V14.01,2013-05-24 12:37:00,
2013-05-24 08:42:00,66.6,66.0,29.17,NW,315,0.0,0.0,98,0.00,,---,0.46,VWS V14.01,2013-05-24 12:42:00,
2013-05-24 08:47:00,66.9,66.3,29.17,NW,315,0.0,0.0,98,0.00,,---,0.46,VWS V14.01,2013-05-24 12:47:00,
2013-05-24 08:53:00,67.3,66.7,29.17,NNW,338,0.0,0.0,98,0.00,,---,0.46,VWS V14.01,2013-05-24 12:53:00,
2013-05-24 08:59:00,67.5,66.6,29.17,North,0,0.0,0.0,97,0.00,,---,0.46,VWS V14.01,2013-05-24 12:59:00,
2013-05-24 09:05:00,67.5,66.6,29.17,North,0,0.0,0.0,97,0.00,,---,0.46,VWS V14.01,2013-05-24 13:05:00,
2013-05-24 09:11:00,67.3,66.1,29.17,North,0,0.0,0.0,96,0.00,,---,0.46,VWS V14.01,2013-05-24 13:11:00,
2013-05-24 09:16:00,67.1,65.9,29.17,North,0,0.0,0.0,96,0.00,,---,0.46,VWS V14.01,2013-05-24 13:16:00,
2013-05-24 09:21:00,66.9,65.4,29.17,North,0,0.0,0.0,95,0.00,,---,0.46,VWS V14.01,2013-05-24 13:21:00,
2013-05-24 09:26:00,66.9,65.8,29.20,NNE,22,0.0,0.0,96,0.00,,---,0.46,VWS V14.01,2013-05-24 13:26:00,
2013-05-24 09:31:00,66.9,65.8,29.20,WNW,292,0.0,0.0,96,0.00,,---,0.46,VWS V14.01,2013-05-24 13:31:00,
2013-05-24 09:36:00,66.9,65.8,29.20,WNW,292,0.0,0.0,96,0.00,,---,0.46,VWS V14.01,2013-05-24 13:36:00,
2013-05-24 09:42:00,67.1,65.9,29.20,WNW,292,0.0,0.0,96,0.00,,---,0.46,VWS V14.01,2013-05-24 13:42:00,
2013-05-24 09:47:00,67.3,66.1,29.20,WNW,292,0.0,0.0,96,0.00,,---,0.46,VWS V14.01,2013-05-24 13:47:00,
2013-05-24 09:52:00,67.5,66.3,29.20,WNW,292,0.0,0.0,96,0.00,,---,0.46,VWS V14.01,2013-05-24 13:52:00,
2013-05-24 09:57:00,67.6,66.5,29.20,ENE,68,0.0,0.0,96,0.00,,---,0.46,VWS V14.01,2013-05-24 13:57:00,
2013-05-24 10:02:00,67.8,66.6,29.20,ENE,68,0.0,0.0,96,0.00,,---,0.46,VWS V14.01,2013-05-24 14:02:00,
2013-05-24 10:07:00,68.2,66.7,29.20,NNW,338,0.0,0.0,95,0.00,,---,0.46,VWS V14.01,2013-05-24 14:07:00,
2013-05-24 10:12:00,68.5,67.1,29.20,North,0,0.0,0.0,95,0.00,,---,0.46,VWS V14.01,2013-05-24 14:12:00,
2013-05-24 10:17:00,68.7,66.9,29.20,NNW,338,0.0,0.0,94,0.00,,---,0.46,VWS V14.01,2013-05-24 14:17:00,
2013-05-24 10:22:00,68.9,66.8,29.20,ENE,68,0.0,0.0,93,0.00,,---,0.46,VWS V14.01,2013-05-24 14:22:00,
2013-05-24 10:27:00,69.1,66.7,29.20,ENE,68,0.0,0.0,92,0.00,,---,0.46,VWS V14.01,2013-05-24 14:27:00,
2013-05-24 10:32:00,69.3,66.8,29.20,ENE,68,0.0,0.0,92,0.00,,---,0.46,VWS V14.01,2013-05-24 14:32:00,
2013-05-24 10:37:00,69.4,67.0,29.20,NNE,22,0.0,0.0,92,0.00,,---,0.46,VWS V14.01,2013-05-24 14:37:00,
2013-05-24 10:42:00,69.6,66.9,29.20,ENE,68,0.0,0.0,91,0.00,,---,0.46,VWS V14.01,2013-05-24 14:42:00,
2013-05-24 10:47:00,69.4,66.1,29.20,East,90,0.0,0.0,89,0.00,,---,0.46,VWS V14.01,2013-05-24 14:47:00,
2013-05-24 10:53:00,69.3,65.9,29.20,East,90,0.0,0.0,89,0.00,,---,0.46,VWS V14.01,2013-05-24 14:53:00,
2013-05-24 10:58:00,68.7,65.3,29.20,ENE,68,0.0,0.0,89,0.12,,---,0.58,VWS V14.01,2013-05-24 14:58:00,
2013-05-24 11:04:00,68.4,65.3,29.20,NE,45,0.0,0.0,90,0.16,,---,0.62,VWS V14.01,2013-05-24 15:04:00,
2013-05-24 11:09:00,68.0,65.0,29.20,NE,45,0.0,0.0,90,0.16,,---,0.62,VWS V14.01,2013-05-24 15:09:00,
2013-05-24 11:14:00,67.6,64.9,29.20,NE,45,0.0,0.0,91,0.16,,---,0.62,VWS V14.01,2013-05-24 15:14:00,
2013-05-24 11:19:00,67.6,64.9,29.20,NE,45,0.0,0.0,91,0.16,,---,0.62,VWS V14.01,2013-05-24 15:19:00,
2013-05-24 11:24:00,67.5,65.1,29.20,NE,45,0.0,0.0,92,0.16,,---,0.62,VWS V14.01,2013-05-24 15:24:00,
2013-05-24 11:30:00,67.3,64.9,29.20,NE,45,0.0,0.0,92,0.16,,---,0.62,VWS V14.01,2013-05-24 15:30:00,
2013-05-24 11:35:00,67.3,64.9,29.20,NE,45,0.0,0.0,92,0.16,,---,0.62,VWS V14.01,2013-05-24 15:35:00,
2013-05-24 11:40:00,67.3,65.2,29.20,NE,45,0.0,0.0,93,0.16,,---,0.62,VWS V14.01,2013-05-24 15:40:00,
2013-05-24 11:45:00,67.1,65.0,29.20,East,90,0.0,0.0,93,0.16,,---,0.62,VWS V14.01,2013-05-24 15:45:00,
2013-05-24 11:50:00,67.1,65.0,29.20,East,90,0.0,0.0,93,0.16,,---,0.62,VWS V14.01,2013-05-24 15:50:00,
2013-05-24 11:55:00,66.9,64.8,29.20,East,90,0.0,0.0,93,0.16,,---,0.62,VWS V14.01,2013-05-24 15:55:00,
2013-05-24 12:00:00,66.9,65.1,29.20,East,90,0.0,0.0,94,0.04,,---,0.62,VWS V14.01,2013-05-24 16:00:00,
2013-05-24 12:05:00,66.9,65.1,29.20,ENE,68,0.0,0.0,94,0.00,,---,0.62,VWS V14.01,2013-05-24 16:05:00,
2013-05-24 12:10:00,66.9,65.1,29.20,NE,45,0.0,0.0,94,0.00,,---,0.62,VWS V14.01,2013-05-24 16:10:00,
2013-05-24 12:15:00,66.6,64.8,29.20,SW,225,5.8,5.8,94,0.00,,---,0.62,VWS V14.01,2013-05-24 16:15:00,
2013-05-24 12:20:00,65.5,62.5,29.20,SSW,202,1.1,4.7,90,0.08,,---,0.70,VWS V14.01,2013-05-24 16:20:00,
2013-05-24 12:26:00,63.1,58.9,29.20,WSW,248,4.3,4.7,86,0.17,,---,0.79,VWS V14.01,2013-05-24 16:26:00,
2013-05-24 12:32:00,61.3,58.4,29.20,ENE,68,2.5,3.4,90,0.17,,---,0.79,VWS V14.01,2013-05-24 16:32:00,
2013-05-24 12:37:00,60.6,58.3,29.20,South,180,2.5,5.6,92,0.58,,---,1.20,VWS V14.01,2013-05-24 16:37:00,
2013-05-24 12:42:00,60.3,58.2,29.23,SSW,202,4.9,4.9,93,0.58,,---,1.20,VWS V14.01,2013-05-24 16:42:00,
2013-05-24 12:47:00,60.4,59.0,29.23,ESE,112,2.7,2.9,95,0.58,,---,1.20,VWS V14.01,2013-05-24 16:47:00,
2013-05-24 12:52:00,61.0,59.8,29.23,SSW,202,0.0,2.0,96,0.66,,---,1.28,VWS V14.01,2013-05-24 16:52:00,
2013-05-24 12:57:00,61.7,60.5,29.23,West,270,1.1,4.9,96,0.66,,---,1.28,VWS V14.01,2013-05-24 16:57:00,
2013-05-24 13:02:00,61.9,60.4,29.23,SSE,158,2.9,2.9,95,0.66,,---,1.28,VWS V14.01,2013-05-24 17:02:00,
2013-05-24 13:07:00,61.7,59.7,29.23,ENE,68,4.0,5.4,93,0.66,,---,1.28,VWS V14.01,2013-05-24 17:07:00,
2013-05-24 13:12:00,61.7,58.7,29.23,South,180,2.0,3.6,90,0.66,,---,1.28,VWS V14.01,2013-05-24 17:12:00,
2013-05-24 13:17:00,61.9,58.9,29.23,SSW,202,6.0,6.0,90,0.66,,---,1.28,VWS V14.01,2013-05-24 17:17:00,
2013-05-24 13:22:00,61.9,58.6,29.23,SSE,158,3.1,4.7,89,0.58,,---,1.28,VWS V14.01,2013-05-24 17:22:00,
2013-05-24 13:28:00,61.3,57.1,29.23,South,180,2.9,4.3,86,0.49,,---,1.28,VWS V14.01,2013-05-24 17:28:00,
2013-05-24 13:33:00,60.6,55.8,29.23,NE,45,4.5,4.5,84,0.49,,---,1.28,VWS V14.01,2013-05-24 17:33:00,
2013-05-24 13:38:00,59.9,54.4,29.23,SSE,158,4.0,4.0,82,0.08,,---,1.28,VWS V14.01,2013-05-24 17:38:00,
2013-05-24 13:44:00,59.5,54.4,29.23,SE,135,4.5,4.9,83,0.08,,---,1.28,VWS V14.01,2013-05-24 17:44:00,
2013-05-24 13:50:00,59.2,54.0,29.23,East,90,2.7,2.9,83,0.08,,---,1.28,VWS V14.01,2013-05-24 17:50:00,
2013-05-24 13:56:00,59.0,53.8,29.26,East,90,2.7,6.0,83,0.00,,---,1.28,VWS V14.01,2013-05-24 17:56:00,
2013-05-24 14:01:00,58.5,53.3,29.26,North,0,4.7,4.7,83,0.00,,---,1.28,VWS V14.01,2013-05-24 18:01:00,
2013-05-24 14:06:00,58.5,53.7,29.26,East,90,3.6,4.3,84,0.00,,---,1.28,VWS V14.01,2013-05-24 18:06:00,
2013-05-24 14:11:00,58.1,53.3,29.26,East,90,2.5,4.0,84,0.00,,---,1.28,VWS V14.01,2013-05-24 18:11:00,
2013-05-24 14:17:00,58.5,54.0,29.26,SW,225,2.7,6.7,85,0.00,,---,1.28,VWS V14.01,2013-05-24 18:17:00,
2013-05-24 14:22:00,58.6,53.8,29.26,SSW,202,4.3,5.6,84,0.00,,---,1.28,VWS V14.01,2013-05-24 18:22:00,
2013-05-24 14:28:00,58.8,54.0,29.26,East,90,2.7,7.2,84,0.00,,---,1.28,VWS V14.01,2013-05-24 18:28:00,
2013-05-24 14:33:00,58.8,54.0,29.26,WNW,292,2.7,9.4,84,0.00,,---,1.28,VWS V14.01,2013-05-24 18:33:00,
2013-05-24 14:38:00,58.8,53.7,29.26,ENE,68,2.5,5.4,83,0.00,,---,1.28,VWS V14.01,2013-05-24 18:38:00,
2013-05-24 14:43:00,58.8,53.7,29.26,SW,225,9.8,9.8,83,0.00,,---,1.28,VWS V14.01,2013-05-24 18:43:00,
2013-05-24 14:48:00,59.2,54.0,29.26,NW,315,4.0,6.9,83,0.00,,---,1.28,VWS V14.01,2013-05-24 18:48:00,
2013-05-24 14:53:00,59.2,52.3,29.26,NW,315,3.6,6.5,78,0.00,,---,1.28,VWS V14.01,2013-05-24 18:53:00,
2013-05-24 14:58:00,59.0,52.5,29.26,NNE,22,3.1,6.3,79,0.00,,---,1.28,VWS V14.01,2013-05-24 18:58:00,
2013-05-24 15:03:00,58.8,51.6,29.26,WNW,292,2.7,4.7,77,0.00,,---,1.28,VWS V14.01,2013-05-24 19:03:00,
2013-05-24 15:08:00,59.0,52.2,29.26,SW,225,2.5,2.9,78,0.00,,---,1.28,VWS V14.01,2013-05-24 19:08:00,
2013-05-24 15:13:00,59.4,52.5,29.26,NNE,22,2.2,2.2,78,0.00,,---,1.28,VWS V14.01,2013-05-24 19:13:00,
2013-05-24 15:18:00,59.5,51.3,29.26,NW,315,6.5,7.6,74,0.00,,---,1.28,VWS V14.01,2013-05-24 19:18:00,
2013-05-24 15:23:00,59.5,50.1,29.26,East,90,3.4,6.0,71,0.00,,---,1.28,VWS V14.01,2013-05-24 19:23:00,
2013-05-24 15:29:00,59.9,50.1,29.26,SW,225,2.9,7.8,70,0.00,,---,1.28,VWS V14.01,2013-05-24 19:29:00,
2013-05-24 15:34:00,60.1,49.9,29.26,WSW,248,3.1,11.4,69,0.00,,---,1.28,VWS V14.01,2013-05-24 19:34:00,
2013-05-24 15:40:00,59.9,50.5,29.26,NNE,22,1.6,2.9,71,0.00,,---,1.28,VWS V14.01,2013-05-24 19:40:00,
2013-05-24 15:45:00,59.5,49.4,29.26,SSW,202,4.7,6.5,69,0.00,,---,1.28,VWS V14.01,2013-05-24 19:45:00,
2013-05-24 15:50:00,59.4,49.2,29.26,SW,225,3.1,5.4,69,0.00,,---,1.28,VWS V14.01,2013-05-24 19:50:00,
2013-05-24 15:55:00,59.2,49.0,29.26,North,0,4.3,4.3,69,0.00,,---,1.28,VWS V14.01,2013-05-24 19:55:00,
2013-05-24 16:00:00,59.0,48.5,29.26,SW,225,3.1,4.0,68,0.00,,---,1.28,VWS V14.01,2013-05-24 20:00:00,
2013-05-24 16:06:00,58.6,47.7,29.26,WNW,292,2.5,7.6,67,0.00,,---,1.28,VWS V14.01,2013-05-24 20:06:00,
2013-05-24 16:11:00,58.3,47.0,29.26,SE,135,1.3,5.4,66,0.00,,---,1.28,VWS V14.01,2013-05-24 20:11:00,
2013-05-24 16:16:00,57.9,46.6,29.26,East,90,3.1,4.7,66,0.00,,---,1.28,VWS V14.01,2013-05-24 20:16:00,
2013-05-24 16:21:00,57.9,47.4,29.26,NNW,338,5.8,7.4,68,0.00,,---,1.28,VWS V14.01,2013-05-24 20:21:00,
2013-05-24 16:26:00,57.6,46.7,29.29,SW,225,6.9,8.7,67,0.00,,---,1.28,VWS V14.01,2013-05-24 20:26:00,
2013-05-24 16:31:00,57.4,46.5,29.29,NW,315,7.6,7.6,67,0.00,,---,1.28,VWS V14.01,2013-05-24 20:31:00,
2013-05-24 16:36:00,57.2,46.0,29.29,NNW,338,5.6,6.5,66,0.00,,---,1.28,VWS V14.01,2013-05-24 20:36:00,
2013-05-24 16:42:00,56.8,45.2,29.29,NNE,22,7.8,7.8,65,0.00,,---,1.28,VWS V14.01,2013-05-24 20:42:00,
2013-05-24 16:47:00,56.8,45.2,29.29,ESE,112,6.3,7.4,65,0.00,,---,1.28,VWS V14.01,2013-05-24 20:47:00,
2013-05-24 16:53:00,56.7,44.6,29.29,WSW,248,4.3,13.0,64,0.00,,---,1.28,VWS V14.01,2013-05-24 20:53:00,
2013-05-24 16:58:00,56.5,44.5,29.29,ESE,112,6.5,6.5,64,0.00,,---,1.28,VWS V14.01,2013-05-24 20:58:00,
2013-05-24 17:04:00,56.3,44.3,29.29,ENE,68,3.4,6.5,64,0.00,,---,1.28,VWS V14.01,2013-05-24 21:04:00,
2013-05-24 17:09:00,56.3,45.1,29.29,SW,225,3.8,4.0,66,0.00,,---,1.28,VWS V14.01,2013-05-24 21:09:00,
2013-05-24 17:14:00,56.3,45.1,29.29,WNW,292,2.7,4.0,66,0.00,,---,1.28,VWS V14.01,2013-05-24 21:14:00,
2013-05-24 17:20:00,56.1,44.5,29.29,ENE,68,2.7,7.8,65,0.00,,---,1.28,VWS V14.01,2013-05-24 21:20:00,
2013-05-24 17:25:00,55.9,44.0,29.29,West,270,7.4,7.4,64,0.00,,---,1.28,VWS V14.01,2013-05-24 21:25:00,
2013-05-24 17:30:00,55.9,44.0,29.29,ENE,68,3.4,5.4,64,0.00,,---,1.28,VWS V14.01,2013-05-24 21:30:00,
2013-05-24 17:36:00,55.9,44.8,29.29,SSW,202,2.5,2.9,66,0.00,,---,1.28,VWS V14.01,2013-05-24 21:36:00,
2013-05-24 17:41:00,55.9,44.4,29.29,SW,225,2.5,8.1,65,0.00,,---,1.28,VWS V14.01,2013-05-24 21:41:00,
2013-05-24 17:46:00,55.8,44.2,29.29,South,180,2.5,6.0,65,0.00,,---,1.28,VWS V14.01,2013-05-24 21:46:00,
2013-05-24 17:51:00,55.8,44.6,29.29,NW,315,4.9,4.9,66,0.00,,---,1.28,VWS V14.01,2013-05-24 21:51:00,
2013-05-24 17:56:00,55.6,44.0,29.29,ENE,68,2.7,7.4,65,0.00,,---,1.28,VWS V14.01,2013-05-24 21:56:00,
2013-05-24 18:01:00,55.4,43.8,29.29,South,180,3.6,4.9,65,0.00,,---,1.28,VWS V14.01,2013-05-24 22:01:00,
2013-05-24 18:06:00,55.2,43.7,29.29,NE,45,2.2,4.7,65,0.00,,---,1.28,VWS V14.01,2013-05-24 22:06:00,
2013-05-24 18:12:00,55.0,43.5,29.32,SSW,202,9.8,10.3,65,0.00,,---,1.28,VWS V14.01,2013-05-24 22:12:00,
2013-05-24 18:17:00,55.0,43.9,29.32,NNW,338,4.9,11.2,66,0.00,,---,1.28,VWS V14.01,2013-05-24 22:17:00,
2013-05-24 18:22:00,54.9,43.3,29.32,West,270,1.6,4.3,65,0.00,,---,1.28,VWS V14.01,2013-05-24 22:22:00,
2013-05-24 18:27:00,54.9,43.3,29.32,WNW,292,2.9,7.8,65,0.00,,---,1.28,VWS V14.01,2013-05-24 22:27:00,
2013-05-24 18:33:00,54.7,43.2,29.32,South,180,3.6,4.9,65,0.00,,---,1.28,VWS V14.01,2013-05-24 22:33:00,
2013-05-24 18:38:00,54.5,43.0,29.32,West,270,3.8,4.7,65,0.00,,---,1.28,VWS V14.01,2013-05-24 22:38:00,
2013-05-24 18:43:00,54.5,43.0,29.32,ESE,112,2.7,4.3,65,0.00,,---,1.28,VWS V14.01,2013-05-24 22:43:00,
2013-05-24 18:48:00,54.3,42.8,29.32,SW,225,2.9,4.0,65,0.00,,---,1.28,VWS V14.01,2013-05-24 22:48:00,
2013-05-24 18:54:00,54.1,42.7,29.32,WSW,248,2.9,3.1,65,0.00,,---,1.28,VWS V14.01,2013-05-24 22:54:00,
2013-05-24 18:59:00,54.1,42.7,29.32,East,90,4.7,6.3,65,0.00,,---,1.28,VWS V14.01,2013-05-24 22:59:00,
2013-05-24 19:04:00,54.0,42.9,29.32,SW,225,3.4,5.4,66,0.00,,---,1.28,VWS V14.01,2013-05-24 23:04:00,
2013-05-24 19:09:00,54.0,43.3,29.35,NNE,22,3.8,3.8,67,0.00,,---,1.28,VWS V14.01,2013-05-24 23:09:00,
2013-05-24 19:14:00,53.8,41.9,29.35,SW,225,3.6,7.6,64,0.00,,---,1.28,VWS V14.01,2013-05-24 23:14:00,
2013-05-24 19:19:00,53.8,41.9,29.35,NNW,338,3.8,9.0,64,0.00,,---,1.28,VWS V14.01,2013-05-24 23:19:00,
2013-05-24 19:24:00,53.6,42.1,29.35,South,180,2.7,5.6,65,0.00,,---,1.28,VWS V14.01,2013-05-24 23:24:00,
2013-05-24 19:29:00,53.6,42.1,29.35,SSW,202,2.5,6.9,65,0.00,,---,1.28,VWS V14.01,2013-05-24 23:29:00,
2013-05-24 19:35:00,53.6,41.3,29.35,West,270,4.9,4.9,63,0.00,,---,1.28,VWS V14.01,2013-05-24 23:35:00,
2013-05-24 19:40:00,53.6,41.7,29.35,NNE,22,6.5,10.3,64,0.00,,---,1.28,VWS V14.01,2013-05-24 23:40:00,
2013-05-24 19:45:00,53.6,41.7,29.35,SSE,158,2.0,4.3,64,0.00,,---,1.28,VWS V14.01,2013-05-24 23:45:00,
2013-05-24 19:50:00,53.4,42.0,29.35,ESE,112,1.3,3.8,65,0.00,,---,1.28,VWS V14.01,2013-05-24 23:50:00,
2013-05-24 19:56:00,53.4,42.0,29.35,NNE,22,4.3,4.3,65,0.00,,---,1.28,VWS V14.01,2013-05-24 23:56:00,
2013-05-24 20:01:00,53.2,41.8,29.35,SSE,158,4.9,6.9,65,0.00,,---,1.28,VWS V14.01,2013-05-25 00:01:00,
2013-05-24 20:06:00,53.1,41.2,29.35,North,0,2.7,6.0,64,0.00,,---,1.28,VWS V14.01,2013-05-25 00:06:00,
2013-05-24 20:11:00,53.1,41.6,29.35,ESE,112,6.5,6.5,65,0.00,,---,1.28,VWS V14.01,2013-05-25 00:11:00,
2013-05-24 20:16:00,53.1,42.0,29.35,SW,225,1.1,1.6,66,0.00,,---,1.28,VWS V14.01,2013-05-25 00:16:00,
2013-05-24 20:21:00,52.9,41.5,29.35,South,180,5.8,5.8,65,0.00,,---,1.28,VWS V14.01,2013-05-25 00:21:00,
2013-05-24 20:26:00,52.9,41.0,29.35,South,180,2.5,3.6,64,0.00,,---,1.28,VWS V14.01,2013-05-25 00:26:00,
2013-05-24 20:31:00,52.9,41.8,29.35,East,90,4.3,4.9,66,0.00,,---,1.28,VWS V14.01,2013-05-25 00:31:00,
2013-05-24 20:36:00,52.9,41.8,29.35,WNW,292,6.5,6.5,66,0.00,,---,1.28,VWS V14.01,2013-05-25 00:36:00,
2013-05-24 20:41:00,52.7,41.7,29.35,SW,225,3.1,4.0,66,0.00,,---,1.28,VWS V14.01,2013-05-25 00:41:00,
2013-05-24 20:46:00,52.7,41.7,29.35,ENE,68,4.0,4.0,66,0.00,,---,1.28,VWS V14.01,2013-05-25 00:46:00,
2013-05-24 20:51:00,52.7,41.7,29.35,ESE,112,2.2,4.0,66,0.00,,---,1.28,VWS V14.01,2013-05-25 00:51:00,
2013-05-24 20:56:00,52.5,41.9,29.38,South,180,2.7,7.2,67,0.00,,---,1.28,VWS V14.01,2013-05-25 00:56:00,
2013-05-24 21:01:00,52.5,41.9,29.38,WSW,248,4.3,7.2,67,0.00,,---,1.28,VWS V14.01,2013-05-25 01:01:00,
2013-05-24 21:06:00,52.5,41.9,29.38,NNE,22,3.1,3.4,67,0.00,,---,1.28,VWS V14.01,2013-05-25 01:06:00,
2013-05-24 21:11:00,52.3,41.7,29.35,SW,225,8.1,8.1,67,0.00,,---,1.28,VWS V14.01,2013-05-25 01:11:00,
2013-05-24 21:16:00,52.3,41.7,29.35,SSE,158,4.3,7.2,67,0.00,,---,1.28,VWS V14.01,2013-05-25 01:16:00,
2013-05-24 21:21:00,52.2,41.9,29.35,NE,45,3.4,5.4,68,0.00,,---,1.28,VWS V14.01,2013-05-25 01:21:00,
2013-05-24 21:27:00,52.2,41.9,29.38,ESE,112,4.0,4.0,68,0.00,,---,1.28,VWS V14.01,2013-05-25 01:27:00,
2013-05-24 21:32:00,52.2,42.3,29.38,SW,225,2.5,2.7,69,0.00,,---,1.28,VWS V14.01,2013-05-25 01:32:00,
2013-05-24 21:38:00,51.6,42.5,29.38,West,270,2.5,3.4,71,0.00,,---,1.28,VWS V14.01,2013-05-25 01:38:00,
2013-05-24 21:43:00,51.3,42.9,29.38,SE,135,2.7,3.8,73,0.00,,---,1.28,VWS V14.01,2013-05-25 01:43:00,
2013-05-24 21:49:00,50.7,43.1,29.38,SE,135,2.0,4.9,75,0.00,,---,1.28,VWS V14.01,2013-05-25 01:49:00,
2013-05-24 21:54:00,50.4,43.1,29.38,SSE,158,1.1,2.7,76,0.00,,---,1.28,VWS V14.01,2013-05-25 01:54:00,
2013-05-24 21:59:00,50.2,43.6,29.38,SSE,158,3.1,3.1,78,0.00,,---,1.28,VWS V14.01,2013-05-25 01:59:00,
2013-05-24 22:05:00,50.2,43.6,29.38,SSE,158,2.0,2.0,78,0.00,,---,1.28,VWS V14.01,2013-05-25 02:05:00,
2013-05-24 22:10:00,50.2,43.9,29.38,WSW,248,1.6,2.2,79,0.00,,---,1.28,VWS V14.01,2013-05-25 02:10:00,
2013-05-24 22:15:00,50.0,43.8,29.38,East,90,1.3,1.3,79,0.00,,---,1.28,VWS V14.01,2013-05-25 02:15:00,
2013-05-24 22:20:00,50.0,44.1,29.38,ENE,68,2.9,2.9,80,0.00,,---,1.28,VWS V14.01,2013-05-25 02:20:00,
2013-05-24 22:25:00,50.0,44.4,29.38,East,90,1.1,1.1,81,0.00,,---,1.28,VWS V14.01,2013-05-25 02:25:00,
2013-05-24 22:30:00,50.0,44.4,29.38,SSE,158,3.8,3.8,81,0.00,,---,1.28,VWS V14.01,2013-05-25 02:30:00,
2013-05-24 22:35:00,50.0,44.7,29.38,NE,45,2.7,4.3,82,0.00,,---,1.28,VWS V14.01,2013-05-25 02:35:00,
2013-05-24 22:40:00,50.0,44.7,29.38,West,270,1.6,4.3,82,0.00,,---,1.28,VWS V14.01,2013-05-25 02:40:00,
2013-05-24 22:46:00,50.0,44.7,29.38,West,270,3.1,3.6,82,0.00,,---,1.28,VWS V14.01,2013-05-25 02:46:00,
2013-05-24 22:51:00,50.0,44.7,29.38,SSE,158,2.7,2.7,82,0.00,,---,1.28,VWS V14.01,2013-05-25 02:51:00,
2013-05-24 22:56:00,50.0,44.7,29.38,East,90,0.0,1.6,82,0.00,,---,1.28,VWS V14.01,2013-05-25 02:56:00,
2013-05-24 23:01:00,49.8,44.9,29.38,ENE,68,1.1,1.3,83,0.00,,---,1.28,VWS V14.01,2013-05-25 03:01:00,
2013-05-24 23:07:00,49.8,44.9,29.38,South,180,2.2,3.6,83,0.00,,---,1.28,VWS V14.01,2013-05-25 03:07:00,
2013-05-24 23:12:00,49.8,45.2,29.38,SSW,202,1.6,2.0,84,0.05,,---,1.33,VWS V14.01,2013-05-25 03:12:00,
2013-05-24 23:17:00,49.6,45.0,29.38,SSE,158,2.7,2.7,84,0.05,,---,1.33,VWS V14.01,2013-05-25 03:17:00,
2013-05-24 23:22:00,49.6,45.0,29.38,SSW,202,1.1,3.8,84,0.05,,---,1.33,VWS V14.01,2013-05-25 03:22:00,
2013-05-24 23:27:00,49.5,44.8,29.38,ENE,68,0.9,1.1,84,0.09,,---,1.37,VWS V14.01,2013-05-25 03:27:00,
2013-05-24 23:33:00,49.3,44.7,29.38,East,90,0.9,3.1,84,0.09,,---,1.37,VWS V14.01,2013-05-25 03:33:00,
2013-05-24 23:38:00,49.3,45.0,29.38,NNE,22,2.5,2.5,85,0.09,,---,1.37,VWS V14.01,2013-05-25 03:38:00,
2013-05-24 23:44:00,49.1,45.1,29.38,NE,45,2.0,4.0,86,0.13,,---,1.41,VWS V14.01,2013-05-25 03:44:00,
2013-05-24 23:49:00,48.9,44.9,29.38,East,90,1.6,4.0,86,0.13,,---,1.41,VWS V14.01,2013-05-25 03:49:00,
2013-05-24 23:54:00,48.9,44.9,29.38,East,90,2.0,2.5,86,0.13,,---,1.41,VWS V14.01,2013-05-25 03:54:00,